User: anonymous   Login
Location: Unspecified
(0.0000°N, 0.0000°E)
Time: 09:42:19
(UTC+00:00)
Language:

Kosmos-2181 - Orbit

View from above orbital plane
View from above orbital plane
View from above satellite
View from above satellite

Ground track
Ground track

The orbit data is extracted from the following two-line orbital elements,

1 21902U 92012A   18049.87014793  .00000010  00000-0 -49616-5 0  9992
2 21902  82.9433  30.1372 0027171 243.0996 177.7008 13.72372093299605
Epoch (UTC): 18 February 2018 20:53:00
Eccentricity: 0.0027171
inclination: 82.9433°
perigee height: 971 km
apogee height: 1011 km
right ascension of ascending node: 30.1372°
argument of perigee: 243.0996°
revolutions per day: 13.72372093
mean anomaly at epoch: 177.7008°
orbit number at epoch: 29960

The dashed part of the orbit path shows where the satellite is in the earth's shadow,  

DLR